Location: Newark
(34.9500°N, 139.9667°E)
Time: 06:06:07
(UTC+00:00)

Altair - Pass Details

Date: 17 December 2019
Orbit: 1502 x 1682 km, 47.2° (Epoch: 28 January)

Event Time Altitude Azimuth Distance (km) Brightness Sun altitude
Rises 10:03:48 0° 244° (WSW) 4,853 11.2 -30.5°
Reaches altitude 10° 10:07:00 10° 247° (WSW) 3,846 10.4 -31.2°
Maximum altitude 10:16:44 68° 330° (NNW) 1,675 7.6 -33.2°
Enters shadow 10:18:37 57° 21° (NNE) 1,797 7.6 -33.5°
